Wind_Speed
8 11 21 20 13 13 9 7 16 11 9 10 14 11 12 15 15 16 19 21 22 24 28 28 27 28 27 25 25 25 25 25 22 19 18 15 14 12 10 11 10 11 11 9
6 19 17 11 13 14 17 6 12 14 3 10 8 15 13 18 20 22 24 23 24 23 23 28 30 29 30 29 28 26 26 27 27 21 19 13 14 10 8 9 12 11 12 11
14 3 14 14 14 16 18 19 8 7 6 10 7 15 13 15 14 15 17 19 20 23 26 25 31 33 31 32 30 29 29 28 30 24 19 17 14 12 11 8 10 13 14 13
13 16 9 16 21 18 19 17 17 10 5 12 13 12 13 15 19 20 20 21 22 24 25 24 30 34 35 34 31 30 30 31 29 31 23 22 20 18 17 13 12 12 15 15
9 12 18 14 16 19 14 11 16 19 13 10 11 9 17 11 17 21 23 23 24 25 26 27 31 37 37 33 32 31 31 34 31 31 29 27 22 19 15 15 15 15 15 16
10 7 13 18 13 17 10 4 12 15 14 16 20 13 15 13 19 20 21 23 24 24 25 25 33 34 34 34 32 32 33 35 37 34 34 32 26 22 18 17 18 17 15 15
3 11 9 11 14 17 20 14 7 8 11 19 18 16 17 14 15 17 21 24 25 25 25 24 25 31 34 36 35 33 33 35 36 35 35 36 34 31 29 24 21 20 18 16
3 10 11 8 20 13 20 20 8 13 13 16 17 13 14 26 19 11 16 20 19 22 22 24 25 31 34 37 36 36 35 35 36 37 37 38 38 30 29 27 24 23 21 21
3 6 2 4 4 17 15 22 21 9 4 10 14 21 13 14 20 22 18 14 18 22 23 26 26 34 34 36 39 37 36 36 37 37 36 35 36 34 28 30 30 24 24 19
1 7 2 4 4 13 16 16 17 13 17 12 8 21 15 21 16 17 19 18 17 19 22 22 23 33 36 37 38 37 38 38 37 37 38 36 36 36 36 31 32 29 25 23
1 2 4 6 8 20 13 12 14 16 16 14 12 10 16 19 20 17 18 21 19 19 22 23 24 34 38 37 37 39 38 36 36 36 36 36 34 32 31 30 31 33 31 26
1 3 6 9 7 5 6 10 23 12 20 19 13 14 4 16 20 22 21 17 20 20 21 23 23 29 33 36 38 40 39 39 38 38 37 36 34 33 31 33 31 32 35 31
4 3 5 7 8 4 5 1 7 12 8 20 18 15 12 9 7 8 12 13 13 16 18 18 18 21 28 34 37 38 39 42 41 38 37 35 35 33 33 33 33 32 34 34
3 3 8 10 11 11 8 7 4 10 15 18 15 19 23 20 11 10 7 8 8 12 14 16 17 18 25 31 36 37 38 39 39 39 38 36 36 36 35 34 33 31 33 35
3 6 8 16 18 17 18 20 17 11 14 13 19 16 18 19 22 20 13 3 5 6 8 16 20 19 21 27 32 35 35 36 38 38 37 37 37 36 34 32 33 32 31 34
5 5 7 17 16 15 19 21 19 18 17 12 14 12 8 10 7 4 5 6 7 9 7 10 17 18 19 27 33 36 36 38 39 38 37 35 35 34 34 33 32 31 32 31
6 3 5 7 9 14 11 22 19 13 6 17 16 6 11 10 2 6 7 8 9 10 12 12 13 17 22 32 34 36 40 37 38 37 35 34 33 34 34 33 31 31 31 27
8 6 3 8 11 6 2 9 13 13 5 7 8 4 9 4 5 7 9 9 11 11 13 14 13 15 27 35 35 30 33 36 36 34 33 32 33 33 32 31 31 31 29 30
16 8 5 5 7 10 8 7 4 2 3 4 4 6 9 10 10 4 15 13 13 14 14 14 20 24 23 29 32 33 33 34 33 33 33 34 34 32 31 31 32 30 28 28
12 14 8 7 6 5 3 15 14 10 6 8 7 9 9 4 6 6 18 17 15 12 15 16 19 22 25 28 33 33 33 33 34 35 36 33 33 33 33 32 31 30 30 28
7 8 13 12 8 9 4 19 15 6 5 5 8 9 9 8 5 10 13 12 10 10 14 13 3 15 22 27 31 29 30 33 32 27 28 30 31 31 30 29 28 26 26 24
8 8 6 7 6 9 12 12 5 5 2 5 7 9 8 8 9 9 11 11 15 17 19 18 13 12 14 27 31 27 25 24 26 26 27 28 30 30 27 27 26 27 26 26
5 3 2 3 2 4 8 6 12 8 8 5 7 10 9 9 9 11 11 12 13 14 19 23 22 23 20 11 14 16 15 21 26 27 27 28 28 28 26 27 26 25 25 24
2 1 3 2 2 6 3 7 6 8 7 7 6 8 9 9 10 10 10 11 11 15 18 24 27 25 26 24 23 15 6 13 21 23 24 24 24 25 25 24 25 24 24 24
4 7 4 4 6 3 4 10 11 8 5 6 7 8 9 10 10 10 8 9 10 15 18 21 21 22 23 26 24 26 21 9 10 12 13 14 18 24 23 23 22 23 22 23
8 6 3 3 12 6 12 12 14 14 12 8 9 10 11 11 11 10 8 10 12 13 19 19 21 23 24 26 25 24 22 18 14 13 12 10 2 12 19 18 15 23 24 23
Wind_Direction
183 194 212 210 219 232 259 234 233 205 204 212 224 232 192 182 189 184 188 190 191 195 193 197 199 201 201 201 199 200 198 202 199 200 195 199 206 216 230 233 218 214 217 216
177 225 220 225 218 228 244 277 235 251 218 218 215 233 203 189 199 192 190 194 196 192 193 199 201 201 204 204 203 200 203 203 203 199 198 195 195 211 211 219 212 208 209 213
209 225 195 200 203 217 231 236 233 255 258 242 230 245 214 208 211 201 204 208 204 201 195 197 201 202 202 205 205 203 204 206 206 201 198 204 203 214 212 208 204 211 207 213
224 225 190 207 216 207 228 227 237 261 293 232 211 243 206 209 204 207 204 205 207 204 206 202 200 204 204 205 204 205 207 209 209 208 201 201 202 202 207 205 205 204 206 214
203 201 207 218 225 208 232 231 232 242 255 279 229 241 233 202 209 213 211 209 209 206 205 204 205 205 206 203 203 204 206 211 209 207 205 205 210 214 209 210 215 212 211 214
260 256 208 214 210 201 222 221 227 234 236 246 235 233 231 205 211 217 212 214 211 208 207 208 209 205 204 204 203 202 203 211 214 211 212 211 208 210 212 211 215 215 214 215
313 238 229 190 206 203 208 195 198 212 212 235 228 232 233 213 213 212 202 211 213 207 205 203 201 201 200 199 200 198 199 206 211 212 212 216 216 218 220 216 218 218 217 215
242 224 210 198 216 203 202 205 200 207 217 230 217 234 221 228 240 230 228 215 209 206 208 206 203 201 198 196 195 195 198 202 206 211 214 217 221 220 224 226 223 227 230 227
287 245 298 247 312 220 191 211 215 265 248 251 217 236 266 230 238 234 233 219 205 204 205 205 203 202 200 200 196 196 197 202 205 209 211 215 219 219 220 222 229 233 235 232
85 290 251 303 294 242 230 204 205 220 236 234 207 218 229 205 222 224 226 216 211 206 207 207 204 200 202 200 200 197 199 200 204 207 210 214 217 222 223 223 226 226 231 235
202 239 273 290 199 217 201 206 212 214 227 234 245 226 225 223 209 217 222 221 218 208 207 206 207 203 200 196 198 199 199 201 203 206 209 211 215 217 219 221 225 229 233 233
208 269 264 267 292 315 328 253 212 220 217 230 258 243 225 215 211 216 220 219 220 213 207 206 205 202 201 199 196 199 201 201 204 205 205 208 211 213 216 218 223 226 230 231
166 237 282 253 225 160 225 203 292 249 240 229 221 225 266 275 234 213 227 228 224 224 214 209 198 200 198 198 197 198 199 203 205 203 205 207 209 211 214 217 221 222 227 230
192 229 258 273 332 326 295 314 304 274 223 227 231 238 234 255 249 250 244 252 242 223 211 202 204 203 202 197 198 196 198 203 201 202 205 203 204 208 213 216 218 218 223 227
217 257 266 281 290 285 273 268 268 258 250 232 225 243 249 235 249 262 294 280 278 258 206 205 202 200 199 196 198 198 196 196 197 198 199 201 204 207 210 211 214 217 218 225
180 258 283 290 291 269 259 252 247 249 243 249 260 260 266 285 292 296 346 333 300 296 279 244 220 206 198 198 195 193 194 193 191 194 199 198 199 202 206 208 210 210 217 222
191 228 293 276 324 313 266 241 232 230 222 215 215 201 310 285 326 20 355 334 313 299 291 272 255 220 203 201 193 193 193 188 189 193 197 196 195 199 203 206 206 208 213 217
180 177 235 284 300 237 197 24 215 167 152 241 248 297 308 199 119 51 27 352 322 310 294 282 264 248 218 207 202 194 191 188 186 190 194 195 195 198 201 202 205 208 210 213
217 199 248 258 280 304 166 65 116 223 120 347 327 355 314 280 258 8 10 355 332 312 297 281 270 257 234 206 194 183 182 184 183 191 194 195 194 195 198 201 204 206 208 213
207 215 223 252 259 249 36 339 340 306 208 18 14 25 354 240 197 16 342 342 338 327 315 297 275 248 210 193 182 176 178 182 190 193 194 192 193 195 198 203 204 206 209 216
164 190 217 235 250 278 331 334 314 226 95 7 22 28 30 55 12 321 327 331 344 3 359 337 307 188 171 170 171 174 179 191 197 191 191 191 193 196 200 202 204 206 209 216
169 186 200 222 236 249 356 337 318 21 1 5 16 18 18 18 8 2 341 352 12 19 24 26 60 91 150 163 171 175 185 183 182 180 185 189 192 197 204 201 204 205 207 211
159 235 243 238 258 298 285 290 279 312 317 321 354 2 1 1 1 354 353 360 8 17 30 39 62 65 62 104 166 166 169 174 177 181 186 194 194 198 198 198 201 204 207 212
315 86 224 271 222 267 29 320 305 319 316 312 345 345 353 358 358 348 354 359 3 13 19 28 42 47 51 56 66 70 99 182 185 187 191 194 193 195 199 202 204 205 208 212
327 306 306 244 235 211 301 341 351 334 346 344 352 353 350 350 2 356 345 357 358 2 12 24 33 36 37 42 48 51 49 80 159 184 194 196 196 193 196 202 204 206 213 213
346 336 331 339 11 19 39 10 13 28 26 22 8 358 358 353 349 352 351 351 353 355 5 15 21 28 28 37 38 38 37 44 70 93 103 87 167 220 198 197 209 210 210 215
Height
766 771 767 766 768 765 764 767 760 749 743 748 750 755 763 766 769 774 778 781 783 786 792 800 806 812 816 820 824 827 830 833 838 842 846 849 852 854 857 858 860 862 864 867
774 767 758 764 771 774 771 775 765 748 747 751 752 752 753 760 759 760 767 772 775 781 787 794 800 806 811 816 819 823 827 830 834 839 844 847 849 853 855 857 859 861 863 866
763 759 758 766 771 777 772 774 772 765 751 747 752 755 752 752 755 760 764 768 773 776 779 785 792 798 805 809 814 818 822 827 831 836 841 844 847 851 854 856 858 860 863 865
759 750 760 762 764 767 775 764 769 771 773 769 748 768 750 744 755 756 757 760 764 769 774 779 784 790 795 801 808 813 818 823 828 832 837 841 843 847 850 854 856 859 861 863
751 751 757 762 760 760 764 759 769 771 777 774 762 767 738 737 751 748 747 749 753 757 763 768 773 779 787 796 801 807 813 818 823 827 832 836 841 844 847 851 854 857 859 861
753 739 740 743 747 754 752 761 765 765 772 784 760 761 743 739 736 734 736 738 742 748 753 760 768 776 781 789 795 800 806 811 817 822 827 831 835 840 844 847 852 854 857 858
759 747 738 733 747 747 756 763 780 790 783 768 742 757 742 720 715 716 724 727 729 736 744 750 758 765 771 778 786 792 798 804 810 816 821 825 829 834 838 842 846 850 853 855
766 756 743 733 735 744 750 752 758 780 766 757 743 746 731 715 707 710 709 711 720 729 735 741 747 754 760 767 775 782 789 796 803 809 814 819 824 829 833 837 841 844 848 851
775 764 751 748 747 733 742 749 734 752 752 751 727 731 715 707 704 703 707 710 714 718 723 728 737 745 751 760 764 772 780 787 794 801 808 812 817 822 826 830 833 838 842 846
785 778 754 752 745 735 729 725 755 750 767 759 730 728 721 709 708 701 701 704 705 708 713 719 726 732 741 749 758 764 771 777 786 793 799 805 810 815 819 824 827 832 836 840
788 789 759 756 743 731 736 735 730 729 734 742 744 724 692 697 694 696 695 693 694 698 702 707 712 719 727 738 748 754 762 770 778 785 792 798 803 809 814 818 821 825 830 835
791 787 779 759 742 745 747 735 720 733 739 727 727 719 683 681 680 680 681 683 685 686 690 695 702 711 721 727 735 743 752 759 767 775 783 789 795 801 806 810 814 818 822 828
792 793 780 752 740 743 744 748 738 724 722 721 734 726 680 684 688 683 683 682 683 684 688 691 698 703 709 718 725 732 740 747 756 766 774 780 787 793 798 802 807 811 816 821
793 792 785 761 762 770 766 756 752 746 722 722 713 711 695 687 687 679 681 681 681 681 684 688 694 697 702 708 715 722 730 739 747 756 764 770 776 781 788 794 799 804 808 813
793 791 787 775 773 773 770 763 754 751 731 723 708 708 692 683 680 676 675 682 681 681 681 681 684 687 694 701 708 715 723 731 739 747 753 759 766 773 780 786 791 796 801 805
796 789 786 776 764 761 759 750 748 741 735 733 723 716 696 689 689 688 691 690 687 684 683 683 682 684 688 692 696 704 713 720 729 737 743 750 757 765 771 777 783 789 793 798
792 792 782 768 758 756 748 732 730 724 726 723 718 700 705 697 698 699 697 694 692 688 684 683 681 676 677 681 688 694 701 712 720 728 735 742 749 756 763 769 775 780 785 791
796 799 788 773 766 754 710 706 700 720 729 729 722 715 709 696 699 696 696 696 692 689 685 678 674 672 668 672 681 693 702 706 713 721 728 735 742 748 755 762 767 772 779 783
780 789 780 776 761 742 722 728 725 720 732 733 725 717 715 705 694 690 694 696 690 685 680 674 668 664 664 667 674 683 693 701 708 714 719 726 734 741 748 753 758 764 770 775
780 781 782 775 772 736 746 746 742 734 724 729 725 720 716 693 692 699 698 694 689 682 673 663 657 652 652 658 667 676 684 693 698 702 709 719 727 733 739 745 751 756 762 766
783 788 783 775 781 753 757 753 742 737 728 730 725 724 721 713 714 711 706 699 691 684 674 660 650 645 648 656 664 672 680 683 690 702 709 715 720 727 732 738 744 750 756 761
771 775 770 773 774 757 761 751 737 737 734 733 729 726 724 721 717 714 710 702 691 683 674 666 655 654 656 657 662 669 674 682 690 697 704 709 715 721 727 732 738 744 748 752
766 771 763 764 759 761 759 754 751 743 738 736 732 726 725 724 721 718 713 706 698 690 683 677 667 666 666 666 669 672 677 683 688 692 697 702 709 715 720 725 731 737 741 744
774 775 771 773 761 757 753 749 746 743 737 736 731 730 728 726 723 721 716 712 705 698 691 684 677 675 674 673 674 678 679 683 686 690 695 700 705 710 715 720 724 728 731 736
776 771 771 765 758 756 752 750 746 740 737 734 731 731 730 727 724 722 719 715 711 705 698 693 689 686 683 679 682 679 684 686 688 692 697 701 703 706 710 714 716 719 723 725
780 770 765 759 756 748 755 755 750 743 737 735 733 732 731 728 725 722 719 716 713 709 702 700 695 690 688 686 689 691 691 692 692 694 696 699 704 710 706 709 712 712 717 714